Home   Weather   Reading   Past weeks
Flag for USA

Past Weather in Reading, Pennsylvania, USA — Yesterday and Last 2 Weeks

Now
77 °F

Mostly cloudy.


Feels Like: 78 °F
Forecast: 94 / 75 °F
Wind: 3 mph from Northwest

Location: Reading Regional Airport

Current Time: Jul 19, 2019 at 4:45:54 am

Latest Report: Jul 19, 2019 at 3:54 am


Visibility: 10 mi

Pressure: 29.90 "Hg

Humidity: 100%

Dew Point: 77 °F

Location of ReadingLocation

Past Weather in Reading — Graph

°F

Reading Temperature Yesterday

Maximum temperature yesterday: 87 °F (at 12:54 pm)
Minimum temperature yesterday: 74 °F (at 12:54 am)
Average temperature yesterday: 79 °F

High & Low Weather Summary for the Past Weeks

 TemperatureHumidityPressure
High93 °F (Jul 17, 2:54 pm)100% (Jul 4, 3:54 am)30.14 "Hg (Jul 4, 3:54 am)
Low65 °F (Jul 15, 3:54 am)43% (Jul 14, 4:54 pm)29.74 "Hg (Jul 12, 3:37 am)
Average78 °F83%29.96 "Hg
* Reported Jul 4 3:54 am — Jul 19 3:38 am, Reading. Weather by CustomWeather, © 2019

Note: Actual official high and low records may vary slightly from our data, if they occured in-between our weather recording intervals... More about our weather records

Advertising

Reading Weather History for the Previous 24 Hours

Scroll right to see more
 ConditionsComfort  
Time TempWeatherWind HumidityBarometerVisibility
3:38 am
Fri, Jul 19
76 °FMostly cloudy.No wind100%29.90 "Hg10 mi
2:54 am76 °FOvercast.3 mph100%29.90 "Hg10 mi
1:54 am75 °FOvercast.No wind100%29.90 "Hg10 mi
1:18 am75 °FPassing clouds.3 mph100%29.90 "Hg10 mi
12:54 am75 °FClear.No wind100%29.90 "Hg10 mi
11:54 pm
Thu, Jul 18
76 °FClear.No wind100%29.90 "Hg10 mi
10:54 pm76 °FClear.No wind100%29.89 "Hg10 mi
9:54 pm76 °FPassing clouds.No wind100%29.88 "Hg8 mi
8:54 pm76 °FFog.No wind100%29.87 "Hg5 mi
7:54 pm77 °FStrong thunderstorms. Fog.21 mph96%29.86 "Hg2 mi
7:40 pm78 °FStrong thunderstorms. Fog.21 mph87%29.86 "Hg3 mi
7:19 pm80 °FStrong thunderstorms. Fog.21 mph87%29.86 "Hg1 mi
6:54 pm86 °FBroken clouds.No wind77%29.85 "Hg10 mi
5:54 pm86 °FBroken clouds.3 mph75%29.85 "Hg10 mi
4:54 pm84 °FBroken clouds.6 mph80%29.85 "Hg10 mi
3:54 pm84 °FOvercast.5 mph83%29.85 "Hg10 mi
2:54 pm81 °FBroken clouds.5 mph91%29.86 "Hg10 mi
2:01 pm86 °FBroken clouds.8 mph75%29.86 "Hg10 mi
1:28 pm87 °FPartly sunny.5 mph75%29.86 "Hg10 mi
1:21 pm87 °FBroken clouds.6 mph75%29.87 "Hg10 mi
12:54 pm87 °FPartly sunny.No wind75%29.87 "Hg10 mi
12:44 pm85 °FPartly sunny.5 mph77%29.87 "Hg10 mi
11:54 am84 °FScattered clouds.No wind80%29.89 "Hg10 mi
10:54 am80 °FLow clouds.No wind87%29.90 "Hg6 mi
10:08 am80 °FLow clouds.No wind87%29.89 "Hg10 mi
8:54 am78 °FPartly sunny.No wind93%29.90 "Hg10 mi
7:54 am75 °FFog.3 mph100%29.90 "Hg6 mi
7:36 am75 °FFog.3 mph100%29.89 "Hg6 mi
7:06 am75 °FMostly cloudy.5 mph100%29.89 "Hg10 mi
6:54 am75 °FOvercast.3 mph100%29.89 "Hg10 mi
6:28 am74 °FLight rain. Mostly cloudy.No wind100%29.88 "Hg10 mi
5:54 am74 °FMore clouds than sun.No wind100%29.88 "Hg10 mi
5:30 am74 °FOvercast.No wind100%29.88 "Hg10 mi
4:54 am74 °FOvercast.3 mph100%29.88 "Hg10 mi
Weather by CustomWeather, © 2019

See weather overview